{"data":{"norad_id":53564,"intl_designator":"2022-101AP","name":"STARLINK-4577","alt_names":[],"object_type":"PAYLOAD","status":"ACTIVE","operator":null,"country":"US","launch_date":"2022-08-19","launch_site_code":"AFETR","launch_vehicle":null,"mission":null,"orbit_class":"UNKNOWN","rcs_meters":null,"size_class":null,"mass_kg":null,"dimensions":null,"purposes":["comms"],"wikipedia_slug":null,"has_3d_model":false,"image_url":null,"decayed_at":null,"tle_current":{"epoch":"2026-09-20T23:19:21.144864Z","epoch_age_seconds":37524,"freshness":"FRESH","line1":"1 53564U 22101AP  26263.97177251  .00000204  00000+0  17170-4 0  9992","line2":"2 53564  53.1571 241.5436 0001339  91.7119 268.4037 15.34390829226145","mean_motion":15.34390829,"eccentricity":0.0001339,"inclination_deg":53.1571,"raan_deg":241.5436,"arg_perigee_deg":91.7119,"mean_anomaly_deg":268.4037,"bstar":1.717e-5,"rev_number":22614,"period_min":93.848319006083,"perigee_km":461.81450632953,"apogee_km":463.64649064562,"semimajor_km":6840.8674984876,"source":"CELESTRAK","updated_at":"2026-09-21T09:00:32.928700Z"}}}